STARLINK-5761, 55599

Orbit data source: Space-Track

STARLINK-5761, 55599 is a payload satellite owned by SpaceX/Seattle (US) in LEO that was launched on Sun, 12 Feb 2023 UTC via an FALCON 9 launch vehicle from the Air Force Eastern Test Range (AFETR). Payload-class satellites include a variety of spacecraft equipped with specific instruments for various scientific and technological missions. These include communications satellites like Starlink; space stations such as the ISS; scientific satellites like the Hubble; Earth observation satellites from companies like Planet Labs, Umbra, and HawkEye 360; GPS; miniature CubeSats for education and research; and military/defense satellites.

Loading next visibility...
Identifier
55599, 2023-020AG
Orbit
LEO
Country
Flag of USUS
Related business
Manufacturer
SpaceX/Seattle
Mission
Operational Commercial Communications
Bus & Motor
STARLINK, Unknown motor
Mass
305 kg wet, ~290 kg dry
Launch date (UTC)
2023-02-12 (3 years ago)
Launch vehicle
FALCON 9
Launch site
Air Force Eastern Test Range (AFETR)
Object type
Payload
Rocket body
Debris
Shape & HBR
Box + 1 Pan, 10.1 m
Radar Cross Section
13.562 m², Large (>1 m²)

Expand to show TLE details & history
Last TLE update: 2 days ago

TLE from 2 days ago
0 STARLINK-5761
1 55599U 23020AG  26171.32470029  .00000848  00000-0  40353-4 0  9993
2 55599  43.0023 134.7880 0001641 272.2765  87.7899 15.27577631184736
Epoch: 2026-06-20T07:47Z
TLE epoch observation values (Epoch: 2026-06-20T07:47:34.105Z)
Latitude
0.00002°
Longitude
109.35496°
Altitude
482.789 km
Speed
7.626 km/s
True Right ascension
08h 59m 09s
True Declination
0° 00' 00"
Sunlit
Object was in daylight at epoch
Visualization orbit readout
Latitude
Unknown
Longitude
Unknown
Altitude
Unknown
Speed
Unknown
Apparent Right ascension
Unknown
Apparent Declination
Unknown
Sunlit
N/A
Visualization observer readout
Local Sidereal Time
21:39:34
Azimuth
Unknown
Elevation
Unknown
Doppler factor
Unknown
Orbital elements
Apogee altitude
486.127 km
Perigee altitude
483.875 km
Semi-major axis
6,863.138 km
Eccentricity
0.00016
Inclination
43.0023°
RAAN
134.788°
Arg. of periapsis
272.2765°
True anomaly
87.80869°
Mean anomaly
87.7899°
Eccentric anomaly
87.7993°
Mean motion
3.81732 °/min
Orbital period
94.31 mins
BSTAR
0.000040353
Loading maneuver chart data...
Computing Atmospheric mass density...
Loading historical data...
Loading historical data...
Loading historical data...
Loading historical data...
Loading historical data...
Loading historical data...
Loading historical data...

Documentation

Showing up to 5 results
|